Showing default

SKYSAT C10, 42988

Orbit data source: Space-Track

SKYSAT C10, 42988 is a payload satellite owned by Terra Bella (US) in SSO that was launched on Tue, 31 Oct 2017 UTC via a MINOTAUR-C 3210 launch vehicle from the Air Force Western Test Range (AFWTR). Payload-class satellites include a variety of spacecraft equipped with specific instruments for various scientific and technological missions. These include communications satellites like Starlink; space stations such as the ISS; scientific satellites like the Hubble; Earth observation satellites from companies like Planet Labs, Umbra, and HawkEye 360; GPS; miniature CubeSats for education and research; and military/defense satellites.

Loading next visibility...
Identifier
42988, 2017-068B
Orbit
SSO
Country
Flag of USUS
Related business
Manufacturer
Maxar SSL
Mission
Operational Commercial Imaging
Bus & Motor
SKYSAT-GEN2, Unknown motor
Mass
110 kg wet, 110 kg dry
Launch date (UTC)
2017-10-31 (9 years ago)
Launch vehicle
MINOTAUR-C 3210
Launch site
Air Force Western Test Range (AFWTR)
Object type
Payload
Rocket body
Debris
Shape & HBR
Box, 1.0 m
Radar Cross Section
0.888 m², Medium (>0.1 m² and < 1m²)

Expand to show TLE details & history
Last TLE update: 2 days ago

TLE from 2 days ago
0 SKYSAT C10
1 42988U 17068B   26171.35690127  .00007409  00000-0  22285-3 0  9995
2 42988  97.4513 308.2348 0001114 100.0018 260.1351 15.34683060482847
Epoch: 2026-06-20T08:33Z
TLE epoch observation values (Epoch: 2026-06-20T08:33:56.269Z)
Latitude
-0.00001°
Longitude
-88.82234°
Altitude
465.102 km
Speed
7.634 km/s
True Right ascension
20h 32m 56s
True Declination
0° 00' 00"
Sunlit
Object was in full shadow at epoch
Visualization orbit readout
Latitude
Unknown
Longitude
Unknown
Altitude
Unknown
Speed
Unknown
Apparent Right ascension
Unknown
Apparent Declination
Unknown
Sunlit
N/A
Visualization observer readout
Local Sidereal Time
00:50:34
Azimuth
Unknown
Elevation
Unknown
Doppler factor
Unknown
Orbital elements
Apogee altitude
459.572 km
Perigee altitude
458.049 km
Semi-major axis
6,836.947 km
Eccentricity
0.00011
Inclination
97.4513°
RAAN
308.2348°
Arg. of periapsis
100.0018°
True anomaly
260.12252°
Mean anomaly
260.1351°
Eccentric anomaly
260.12881°
Mean motion
3.83928 °/min
Orbital period
93.77 mins
BSTAR
0.00022285
Loading maneuver chart data...
Computing Atmospheric mass density...
Loading historical data...
Loading historical data...
Loading historical data...
Loading historical data...
Loading historical data...
Loading historical data...
Loading historical data...

Documentation

Showing up to 5 results
|